User: anonymous
Location: Whitehorse
(60.7170°N, 135.0500°W)
Time: 22:56:15
(UTC-07:00)
Language:

Cosmos 2219 Rocket - Orbit

View from above orbital plane
View from above orbital plane
View from above satellite
View from above satellite

Ground track
Ground track

The orbit data is extracted from the following two-line orbital elements,

1 22220U 92076B   14261.47387812 -.00000266  00000-0 -10965-3 0  4003
2 22220 071.0037 009.7634 0013492 350.5501 078.9882 14.16324049128798
Epoch (UTC): 18 September 2014 11:22:23
Eccentricity: 0.0013492
inclination: 71.0037°
perigee height: 828 km
apogee height: 847 km
right ascension of ascending node: 9.7634°
argument of perigee: 350.5501°
revolutions per day: 14.16324049
mean anomaly at epoch: 78.9882°
orbit number at epoch: 12879

The dashed part of the orbit path shows where the satellite is in the earth's shadow,  

DLR